Time,TemperatureF,DewpointF,PressureIn,WindDirection,WindDirectionDegrees,WindSpeedMPH,WindSpeedGustMPH,Humidity,HourlyPrecipIn,Conditions,Clouds,dailyrainin,SolarRadiationWatts/m^2,SoftwareType,DateUTC
2013-03-03 00:02:00,20.0,14.0,-100.00,NW,324,0.0,0.0,76,0.00,,,0.00,0.000000,,2013-03-03 05:02:00,
2013-03-03 00:12:00,20.0,14.0,-100.00,NW,324,0.0,0.0,76,0.00,,,0.00,0.000000,,2013-03-03 05:12:00,
2013-03-03 00:32:00,20.0,14.0,-100.00,NNW,329,0.0,0.0,76,0.00,,,0.00,0.000000,,2013-03-03 05:32:00,
2013-03-03 00:42:00,20.0,14.0,-100.00,NNW,329,0.0,0.0,76,0.00,,,0.00,0.000000,,2013-03-03 05:42:00,
2013-03-03 00:52:00,20.0,14.0,-100.00,NNW,329,0.0,0.0,76,0.00,,,0.00,0.000000,,2013-03-03 05:52:00,
2013-03-03 01:02:00,20.0,14.0,-100.00,NNW,329,0.0,0.0,76,0.00,,,0.00,0.000000,,2013-03-03 06:02:00,
2013-03-03 01:11:00,20.0,14.0,-100.00,NNW,329,0.0,0.0,76,0.00,,,0.00,0.000000,,2013-03-03 06:11:00,
2013-03-03 01:32:00,20.0,15.0,-100.00,NW,317,0.0,0.0,79,0.00,,,0.00,0.000000,,2013-03-03 06:32:00,
2013-03-03 01:42:00,20.0,15.0,-100.00,NW,317,0.0,0.0,79,0.00,,,0.00,0.000000,,2013-03-03 06:42:00,
2013-03-03 01:52:00,20.0,15.0,-100.00,NW,317,0.0,0.0,79,0.00,,,0.00,0.000000,,2013-03-03 06:52:00,
2013-03-03 02:01:00,20.0,15.0,-100.00,NW,317,0.0,0.0,79,0.00,,,0.00,0.000000,,2013-03-03 07:01:00,
2013-03-03 02:11:00,20.0,15.0,-100.00,NW,317,0.0,0.0,79,0.00,,,0.00,0.000000,,2013-03-03 07:11:00,
2013-03-03 02:32:00,20.0,13.0,-100.00,NNW,328,0.0,0.0,73,0.00,,,0.00,0.000000,,2013-03-03 07:32:00,
2013-03-03 02:42:00,20.0,13.0,-100.00,NNW,328,0.0,0.0,73,0.00,,,0.00,0.000000,,2013-03-03 07:42:00,
2013-03-03 02:52:00,20.0,13.0,-100.00,NNW,328,0.0,0.0,73,0.00,,,0.00,0.000000,,2013-03-03 07:52:00,
2013-03-03 03:01:00,20.0,13.0,-100.00,NNW,328,0.0,0.0,73,0.00,,,0.00,0.000000,,2013-03-03 08:01:00,
2013-03-03 03:11:00,20.0,13.0,-100.00,NNW,328,0.0,0.0,73,0.00,,,0.00,0.000000,,2013-03-03 08:11:00,
2013-03-03 03:42:00,19.0,12.0,-100.00,NW,321,0.0,0.0,73,0.00,,,0.00,0.000000,,2013-03-03 08:42:00,
2013-03-03 03:54:00,19.0,12.0,-100.00,NW,321,0.0,0.0,73,0.00,,,0.00,0.000000,,2013-03-03 08:54:00,
2013-03-03 04:02:00,19.0,12.0,-100.00,NW,321,0.0,0.0,73,0.00,,,0.00,0.000000,,2013-03-03 09:02:00,
2013-03-03 04:12:00,19.0,12.0,-100.00,NW,321,0.0,0.0,73,0.00,,,0.00,0.000000,,2013-03-03 09:12:00,
2013-03-03 04:32:00,19.0,13.0,-100.00,NW,321,0.0,0.0,77,0.00,,,0.00,0.000000,,2013-03-03 09:32:00,
2013-03-03 04:42:00,19.0,13.0,-100.00,NW,321,0.0,0.0,77,0.00,,,0.00,0.000000,,2013-03-03 09:42:00,
2013-03-03 04:52:00,19.0,13.0,-100.00,NW,321,0.0,0.0,77,0.00,,,0.00,0.000000,,2013-03-03 09:52:00,
2013-03-03 05:01:00,19.0,13.0,-100.00,NW,321,0.0,0.0,77,0.00,,,0.00,0.000000,,2013-03-03 10:01:00,
2013-03-03 05:12:00,19.0,13.0,-100.00,NW,321,0.0,0.0,77,0.00,,,0.00,0.000000,,2013-03-03 10:12:00,
2013-03-03 05:42:00,19.0,14.0,-100.00,NNW,334,0.0,0.0,80,0.00,,,0.00,0.000000,,2013-03-03 10:42:00,
2013-03-03 05:52:00,19.0,14.0,-100.00,NNW,334,0.0,0.0,80,0.00,,,0.00,0.000000,,2013-03-03 10:52:00,
2013-03-03 06:01:00,19.0,14.0,-100.00,NNW,334,0.0,0.0,80,0.00,,,0.00,0.000000,,2013-03-03 11:01:00,
2013-03-03 06:11:00,19.0,14.0,-100.00,NNW,334,0.0,0.0,80,0.00,,,0.00,0.000000,,2013-03-03 11:11:00,
2013-03-03 06:32:00,19.0,10.0,-100.00,NW,316,0.0,0.0,68,0.00,,,0.00,0.000000,,2013-03-03 11:32:00,
2013-03-03 06:42:00,19.0,10.0,-100.00,NW,316,0.0,0.0,68,0.00,,,0.00,0.000000,,2013-03-03 11:42:00,
2013-03-03 06:53:00,19.0,10.0,-100.00,NW,316,0.0,0.0,68,0.00,,,0.00,0.000000,,2013-03-03 11:53:00,
2013-03-03 07:02:00,19.0,10.0,-100.00,NW,316,0.0,0.0,68,0.00,,,0.00,0.000000,,2013-03-03 12:02:00,
2013-03-03 07:11:00,19.0,10.0,-100.00,NW,316,0.0,0.0,68,0.00,,,0.00,0.000000,,2013-03-03 12:11:00,
2013-03-03 07:43:00,18.0,11.0,-100.00,NW,320,0.0,0.0,75,0.00,,,0.00,1.000000,,2013-03-03 12:43:00,
2013-03-03 07:53:00,18.0,11.0,-100.00,NW,320,0.0,0.0,75,0.00,,,0.00,1.000000,,2013-03-03 12:53:00,
2013-03-03 08:02:00,18.0,11.0,-100.00,NW,320,0.0,0.0,75,0.00,,,0.00,1.000000,,2013-03-03 13:02:00,
2013-03-03 08:11:00,18.0,11.0,-100.00,NW,320,0.0,0.0,75,0.00,,,0.00,1.000000,,2013-03-03 13:11:00,
2013-03-03 08:42:00,18.0,13.0,-100.00,NW,322,0.0,0.0,82,0.00,,,0.00,14.000000,,2013-03-03 13:42:00,
2013-03-03 08:52:00,18.0,13.0,-100.00,NW,322,0.0,0.0,82,0.00,,,0.00,14.000000,,2013-03-03 13:52:00,
2013-03-03 09:02:00,18.0,13.0,-100.00,NW,322,0.0,0.0,82,0.00,,,0.00,14.000000,,2013-03-03 14:02:00,
2013-03-03 09:11:00,18.0,13.0,-100.00,NW,322,0.0,0.0,82,0.00,,,0.00,14.000000,,2013-03-03 14:11:00,
2013-03-03 09:32:00,19.0,15.0,-100.00,NW,316,0.0,0.0,83,0.00,,,0.00,37.000000,,2013-03-03 14:32:00,
2013-03-03 09:42:00,19.0,15.0,-100.00,NW,316,0.0,0.0,83,0.00,,,0.00,37.000000,,2013-03-03 14:42:00,
2013-03-03 09:52:00,19.0,15.0,-100.00,NW,316,0.0,0.0,83,0.00,,,0.00,37.000000,,2013-03-03 14:52:00,
2013-03-03 10:02:00,19.0,15.0,-100.00,NW,316,0.0,0.0,83,0.00,,,0.00,37.000000,,2013-03-03 15:02:00,
2013-03-03 10:11:00,19.0,15.0,-100.00,NW,316,0.0,0.0,83,0.00,,,0.00,37.000000,,2013-03-03 15:11:00,
2013-03-03 10:32:00,22.0,16.0,-100.00,NW,316,0.0,0.0,78,0.00,,,0.00,119.000000,,2013-03-03 15:32:00,
2013-03-03 10:42:00,22.0,16.0,-100.00,NW,316,0.0,0.0,78,0.00,,,0.00,119.000000,,2013-03-03 15:42:00,
2013-03-03 10:52:00,22.0,16.0,-100.00,NW,316,0.0,0.0,78,0.00,,,0.00,119.000000,,2013-03-03 15:52:00,
2013-03-03 11:02:00,22.0,16.0,-100.00,NW,316,0.0,0.0,78,0.00,,,0.00,119.000000,,2013-03-03 16:02:00,
2013-03-03 11:12:00,22.0,16.0,-100.00,NW,316,0.0,0.0,78,0.00,,,0.00,119.000000,,2013-03-03 16:12:00,
2013-03-03 11:32:00,22.0,15.0,-100.00,NW,319,0.0,0.0,74,0.00,,,0.00,145.000000,,2013-03-03 16:32:00,
2013-03-03 11:42:00,22.0,15.0,-100.00,NW,319,0.0,0.0,74,0.00,,,0.00,145.000000,,2013-03-03 16:42:00,
2013-03-03 11:52:00,22.0,15.0,-100.00,NW,319,0.0,0.0,74,0.00,,,0.00,145.000000,,2013-03-03 16:52:00,
2013-03-03 12:01:00,22.0,15.0,-100.00,NW,319,0.0,0.0,74,0.00,,,0.00,145.000000,,2013-03-03 17:01:00,
2013-03-03 12:11:00,22.0,15.0,-100.00,NW,319,0.0,0.0,74,0.00,,,0.00,145.000000,,2013-03-03 17:11:00,
2013-03-03 12:42:00,22.0,12.0,-100.00,NNW,327,0.0,0.0,65,0.00,,,0.00,162.000000,,2013-03-03 17:42:00,
2013-03-03 12:52:00,22.0,12.0,-100.00,NNW,327,0.0,0.0,65,0.00,,,0.00,162.000000,,2013-03-03 17:52:00,
2013-03-03 13:02:00,22.0,12.0,-100.00,NNW,327,0.0,0.0,65,0.00,,,0.00,162.000000,,2013-03-03 18:02:00,
2013-03-03 13:11:00,22.0,12.0,-100.00,NNW,327,0.0,0.0,65,0.00,,,0.00,162.000000,,2013-03-03 18:11:00,
2013-03-03 13:32:00,23.0,13.0,-100.00,NNW,339,0.0,0.0,65,0.00,,,0.00,148.000000,,2013-03-03 18:32:00,
2013-03-03 13:42:00,23.0,13.0,-100.00,NNW,339,0.0,0.0,65,0.00,,,0.00,148.000000,,2013-03-03 18:42:00,
2013-03-03 13:53:00,23.0,13.0,-100.00,NNW,339,0.0,0.0,65,0.00,,,0.00,148.000000,,2013-03-03 18:53:00,
2013-03-03 14:02:00,23.0,13.0,-100.00,NNW,339,0.0,0.0,65,0.00,,,0.00,148.000000,,2013-03-03 19:02:00,
2013-03-03 14:11:00,23.0,13.0,-100.00,NNW,339,0.0,0.0,65,0.00,,,0.00,148.000000,,2013-03-03 19:11:00,
2013-03-03 14:42:00,25.0,13.0,-100.00,NW,318,0.0,0.0,61,0.00,,,0.00,209.000000,,2013-03-03 19:42:00,
2013-03-03 14:52:00,25.0,13.0,-100.00,NW,318,0.0,0.0,61,0.00,,,0.00,209.000000,,2013-03-03 19:52:00,
2013-03-03 15:01:00,25.0,13.0,-100.00,NW,318,0.0,0.0,61,0.00,,,0.00,209.000000,,2013-03-03 20:01:00,
2013-03-03 15:11:00,25.0,13.0,-100.00,NW,318,0.0,0.0,61,0.00,,,0.00,209.000000,,2013-03-03 20:11:00,
2013-03-03 15:43:00,25.0,13.0,-100.00,NNW,331,0.0,0.0,61,0.00,,,0.00,197.000000,,2013-03-03 20:43:00,
2013-03-03 15:53:00,25.0,13.0,-100.00,NNW,331,0.0,0.0,61,0.00,,,0.00,197.000000,,2013-03-03 20:53:00,
2013-03-03 16:02:00,25.0,13.0,-100.00,NNW,331,0.0,0.0,61,0.00,,,0.00,197.000000,,2013-03-03 21:02:00,
2013-03-03 16:12:00,25.0,13.0,-100.00,NNW,331,0.0,0.0,61,0.00,,,0.00,197.000000,,2013-03-03 21:12:00,
2013-03-03 16:32:00,24.0,13.0,-100.00,NW,311,0.0,0.0,63,0.00,,,0.00,157.000000,,2013-03-03 21:32:00,
2013-03-03 16:42:00,24.0,13.0,-100.00,NW,311,0.0,0.0,63,0.00,,,0.00,157.000000,,2013-03-03 21:42:00,
2013-03-03 16:52:00,24.0,13.0,-100.00,NW,311,0.0,0.0,63,0.00,,,0.00,157.000000,,2013-03-03 21:52:00,
2013-03-03 17:02:00,24.0,13.0,-100.00,NW,311,0.0,0.0,63,0.00,,,0.00,157.000000,,2013-03-03 22:02:00,
2013-03-03 17:11:00,24.0,13.0,-100.00,NW,311,0.0,0.0,63,0.00,,,0.00,157.000000,,2013-03-03 22:11:00,
2013-03-03 17:32:00,22.0,15.0,-100.00,NNW,327,0.0,0.0,74,0.00,,,0.00,58.000000,,2013-03-03 22:32:00,
2013-03-03 17:42:00,22.0,15.0,-100.00,NNW,327,0.0,0.0,74,0.00,,,0.00,58.000000,,2013-03-03 22:42:00,
2013-03-03 17:53:00,22.0,15.0,-100.00,NNW,327,0.0,0.0,74,0.00,,,0.00,58.000000,,2013-03-03 22:53:00,
2013-03-03 18:02:00,22.0,15.0,-100.00,NNW,327,0.0,0.0,74,0.00,,,0.00,58.000000,,2013-03-03 23:02:00,
2013-03-03 18:11:00,22.0,15.0,-100.00,NNW,327,0.0,0.0,74,0.00,,,0.00,58.000000,,2013-03-03 23:11:00,
2013-03-03 18:32:00,22.0,18.0,-100.00,NNW,335,0.0,0.0,83,0.00,,,0.00,25.000000,,2013-03-03 23:32:00,
2013-03-03 18:42:00,22.0,18.0,-100.00,NNW,335,0.0,0.0,83,0.00,,,0.00,25.000000,,2013-03-03 23:42:00,
2013-03-03 18:52:00,22.0,18.0,-100.00,NNW,335,0.0,0.0,83,0.00,,,0.00,25.000000,,2013-03-03 23:52:00,
2013-03-03 19:02:00,22.0,18.0,-100.00,NNW,335,0.0,0.0,83,0.00,,,0.00,25.000000,,2013-03-04 00:02:00,
2013-03-03 19:11:00,22.0,18.0,-100.00,NNW,335,0.0,0.0,83,0.00,,,0.00,25.000000,,2013-03-04 00:11:00,
2013-03-03 19:32:00,20.0,16.0,-100.00,NNW,346,0.0,0.0,83,0.00,,,0.00,0.000000,,2013-03-04 00:32:00,
2013-03-03 19:42:00,20.0,16.0,-100.00,NNW,346,0.0,0.0,83,0.00,,,0.00,0.000000,,2013-03-04 00:42:00,
2013-03-03 19:52:00,20.0,16.0,-100.00,NNW,346,0.0,0.0,83,0.00,,,0.00,0.000000,,2013-03-04 00:52:00,
2013-03-03 20:02:00,20.0,16.0,-100.00,NNW,346,0.0,0.0,83,0.00,,,0.00,0.000000,,2013-03-04 01:02:00,
2013-03-03 20:12:00,20.0,16.0,-100.00,NNW,346,0.0,0.0,83,0.00,,,0.00,0.000000,,2013-03-04 01:12:00,
2013-03-03 20:32:00,20.0,13.0,-100.00,NW,321,0.0,0.0,75,0.00,,,0.00,0.000000,,2013-03-04 01:32:00,
2013-03-03 20:42:00,20.0,13.0,-100.00,NW,321,0.0,0.0,75,0.00,,,0.00,0.000000,,2013-03-04 01:42:00,
2013-03-03 20:52:00,20.0,13.0,-100.00,NW,321,0.0,0.0,75,0.00,,,0.00,0.000000,,2013-03-04 01:52:00,
2013-03-03 21:01:00,20.0,13.0,-100.00,NW,321,0.0,0.0,75,0.00,,,0.00,0.000000,,2013-03-04 02:01:00,
2013-03-03 21:11:00,20.0,13.0,-100.00,NW,321,0.0,0.0,75,0.00,,,0.00,0.000000,,2013-03-04 02:11:00,
2013-03-03 21:42:00,20.0,13.0,-100.00,NW,320,0.0,0.0,75,0.00,,,0.00,0.000000,,2013-03-04 02:42:00,
2013-03-03 21:53:00,20.0,13.0,-100.00,NW,320,0.0,0.0,75,0.00,,,0.00,0.000000,,2013-03-04 02:53:00,
2013-03-03 22:02:00,20.0,13.0,-100.00,NW,320,0.0,0.0,75,0.00,,,0.00,0.000000,,2013-03-04 03:02:00,
2013-03-03 22:11:00,20.0,13.0,-100.00,NW,320,0.0,0.0,75,0.00,,,0.00,0.000000,,2013-03-04 03:11:00,
2013-03-03 22:32:00,19.0,14.0,-100.00,NW,320,0.0,0.0,80,0.00,,,0.00,0.000000,,2013-03-04 03:32:00,
2013-03-03 22:42:00,19.0,14.0,-100.00,NW,320,0.0,0.0,80,0.00,,,0.00,0.000000,,2013-03-04 03:42:00,
2013-03-03 22:53:00,19.0,14.0,-100.00,NW,320,0.0,0.0,80,0.00,,,0.00,0.000000,,2013-03-04 03:53:00,
2013-03-03 23:02:00,19.0,14.0,-100.00,NW,320,0.0,0.0,80,0.00,,,0.00,0.000000,,2013-03-04 04:02:00,
2013-03-03 23:11:00,19.0,14.0,-100.00,NW,320,0.0,0.0,80,0.00,,,0.00,0.000000,,2013-03-04 04:11:00,
2013-03-03 23:32:00,19.0,15.0,-100.00,NNW,328,0.0,0.0,83,0.00,,,0.00,0.000000,,2013-03-04 04:32:00,
2013-03-03 23:42:00,19.0,15.0,-100.00,NNW,328,0.0,0.0,83,0.00,,,0.00,0.000000,,2013-03-04 04:42:00,
2013-03-03 23:52:00,19.0,15.0,-100.00,NNW,328,0.0,0.0,83,0.00,,,0.00,0.000000,,2013-03-04 04:52:00,